Wind_Speed
17 15 17 16 16 24 21 27 18 19 23 24 23 22 21 18 14 12 11 5 6 7 8 9 9 9 8 6 5 3 4 2 3 4 1 3 2 1 3 6 4 4 5 6 7
21 17 18 17 14 24 12 20 18 25 25 25 24 22 20 16 13 13 11 10 9 10 7 8 9 8 5 4 4 5 3 4 3 2 2 1 1 4 2 2 5 9 10 9 12
20 17 19 16 16 23 14 18 24 26 25 24 22 20 20 15 11 11 10 10 10 10 8 8 9 6 6 6 6 3 3 4 2 1 1 2 4 3 2 4 10 6 7 13 15
20 18 14 17 21 14 21 20 27 25 23 21 19 18 12 4 4 9 9 10 10 9 7 8 6 4 5 4 4 5 3 2 3 1 3 4 7 6 10 8 9 12 16 10 7
19 17 17 19 25 25 22 27 26 23 19 17 14 10 6 15 10 10 10 8 9 8 6 7 6 6 5 4 3 4 2 2 2 4 6 8 10 9 18 19 18 16 6 3 11
22 29 22 33 32 26 30 28 25 20 16 14 10 7 11 14 11 12 11 9 9 7 7 5 8 12 10 4 3 3 3 1 2 3 2 4 6 4 4 3 7 6 7 9 21
27 31 36 37 32 32 28 25 19 16 15 13 15 15 21 12 12 11 10 9 9 9 12 12 8 3 6 4 4 3 2 1 6 4 3 10 3 6 10 12 12 9 11 16 30
37 41 41 36 31 26 22 20 18 18 16 12 8 6 11 13 12 7 11 11 10 10 11 13 12 11 6 9 5 4 4 3 2 7 4 5 9 4 8 8 12 15 21 32 21
40 36 30 27 25 22 21 19 18 15 13 10 8 9 7 10 10 11 9 10 10 10 11 8 5 7 5 4 4 6 1 2 7 5 4 2 9 6 6 10 23 30 35 22 14
30 27 24 21 21 19 21 22 17 15 13 10 8 10 7 6 10 9 9 7 6 8 5 4 6 4 4 5 2 1 3 3 4 3 3 5 20 18 22 21 28 27 21 14 8
23 19 17 17 19 19 15 13 7 11 32 16 13 12 10 9 12 7 6 6 5 8 5 7 7 3 1 3 3 4 1 3 4 3 5 4 16 22 23 15 16 16 12 9 8
16 13 14 11 4 5 3 9 12 13 16 18 17 16 14 7 4 10 7 3 6 4 4 6 4 2 1 2 2 2 0 3 5 3 3 6 21 15 7 5 6 8 9 10 10
16 14 13 17 19 13 20 23 15 9 7 9 13 10 8 10 7 12 8 5 6 5 5 5 3 3 1 1 2 0 1 1 4 7 2 9 7 4 1 5 9 12 13 14 13
15 13 8 6 9 12 13 8 4 4 5 10 8 7 8 3 6 12 7 3 6 3 3 5 1 1 1 1 2 3 2 0 4 5 3 5 4 5 3 6 5 12 12 12 13
11 12 10 9 6 7 5 3 2 2 5 6 5 4 7 6 2 9 11 6 4 3 3 1 4 1 1 1 2 2 2 2 1 1 3 0 1 7 3 6 6 7 5 6 7
9 11 10 6 6 4 2 2 2 6 2 5 4 5 3 7 3 3 4 7 4 4 4 2 1 2 1 1 0 2 3 5 3 1 2 1 2 6 4 6 3 4 5 8 10
8 8 8 6 4 3 2 2 5 6 2 2 2 3 2 4 4 5 4 5 3 4 4 4 1 1 1 2 2 6 5 3 5 3 3 2 1 10 5 5 3 4 8 9 9
4 4 6 7 6 4 0 5 8 2 3 2 1 1 4 5 4 4 2 3 2 4 3 3 5 1 1 2 4 2 4 4 4 2 5 2 6 6 4 6 12 13 10 11 6
4 2 6 7 5 4 2 6 7 6 4 5 1 3 3 2 1 3 2 3 3 2 3 2 3 1 2 2 3 2 2 2 5 1 2 3 7 10 5 5 9 15 11 8 7
5 4 7 10 6 0 4 4 2 2 2 1 3 2 4 1 1 1 2 2 3 2 3 4 3 0 1 2 4 1 5 3 2 1 4 5 5 5 5 4 2 4 7 9 11
3 2 7 11 5 3 4 3 3 2 1 1 3 3 2 3 2 1 2 2 4 3 2 3 3 3 1 5 6 2 0 3 3 2 2 3 7 6 5 3 4 7 11 16 22
2 2 9 9 2 4 3 3 3 3 1 1 2 2 3 3 1 2 4 4 6 7 3 2 3 3 6 2 1 2 4 4 3 3 1 1 7 2 5 5 5 10 18 30 31
2 3 7 7 3 2 1 2 2 2 0 1 1 0 1 2 1 4 3 1 8 6 5 5 0 4 4 4 3 3 4 3 3 2 6 4 6 1 2 3 7 17 34 35 33
3 3 6 8 8 5 2 1 2 1 2 2 1 2 1 1 2 1 2 1 6 4 4 7 3 5 6 3 3 4 5 6 5 3 3 10 10 18 17 14 22 32 33 35 31
6 3 3 3 5 3 2 3 2 1 1 2 0 3 4 1 1 3 3 3 1 3 3 4 4 4 6 10 6 11 14 10 13 11 8 1 10 15 10 11 25 30 31 27 28
4 3 3 2 1 1 3 3 4 2 4 2 3 2 5 5 7 4 4 4 5 1 4 2 2 1 5 9 6 9 16 17 18 18 19 25 28 23 34 20 20 27 26 28 29
9 6 2 2 2 2 2 2 2 0 2 2 4 2 3 9 16 18 14 8 5 7 6 4 2 2 5 3 9 9 8 11 5 4 16 12 13 8 11 10 16 25 30 25 27
Wind_Direction
153 155 167 166 171 187 178 150 156 147 142 138 135 129 128 126 132 132 106 36 66 114 124 129 135 134 125 91 74 81 67 120 167 155 186 347 5 228 267 268 266 241 255 266 254
149 140 148 161 164 194 187 143 150 141 142 138 134 130 129 125 135 108 88 99 111 119 123 133 143 142 87 70 42 65 89 178 185 173 202 266 267 303 300 260 254 251 257 263 269
147 140 141 161 153 190 161 154 143 140 140 140 137 137 135 136 120 40 83 104 117 118 116 129 134 117 75 53 26 50 114 167 169 171 270 270 279 258 241 259 233 215 256 287 290
140 146 140 142 144 168 154 148 137 135 138 141 142 145 139 117 86 37 76 105 117 119 115 119 126 80 67 67 37 93 89 117 156 257 294 281 295 281 235 249 273 273 290 294 308
122 124 129 144 138 138 140 135 132 131 133 134 138 139 105 85 57 57 72 104 107 112 113 105 105 101 100 99 87 78 147 117 216 276 283 289 269 267 268 276 273 275 254 264 324
98 104 114 125 129 133 130 129 126 123 125 130 133 118 107 77 61 60 70 83 98 104 104 115 103 111 101 82 72 103 113 263 279 315 310 322 276 327 257 245 268 245 236 265 313
107 112 106 121 125 123 122 121 119 119 120 120 109 110 90 77 65 65 80 95 99 99 108 100 104 126 110 98 102 81 125 69 22 355 353 328 266 229 295 271 256 259 264 283 307
105 112 113 114 116 116 115 112 116 116 115 114 107 112 78 74 69 83 84 89 96 105 106 97 95 89 65 112 40 52 62 10 341 357 14 32 276 261 321 286 271 273 283 302 300
104 103 104 106 111 114 112 106 104 103 103 103 96 99 81 77 70 69 79 92 96 103 99 93 90 78 74 70 28 12 18 0 325 34 337 64 277 237 281 286 285 281 288 296 290
99 97 99 100 102 103 105 99 90 105 103 89 77 79 66 56 57 54 70 83 97 102 89 59 58 71 33 48 225 320 3 319 266 331 351 262 266 279 279 279 274 283 284 281 269
104 103 102 106 113 114 112 103 99 70 63 66 67 82 76 76 55 47 64 82 74 58 43 24 64 79 100 41 103 107 95 278 264 297 321 259 281 288 298 279 268 269 265 254 257
87 82 81 80 82 111 112 107 105 120 73 67 68 68 54 54 60 48 48 65 50 64 344 30 81 195 188 92 102 94 27 294 275 279 279 313 293 290 276 262 245 256 257 255 257
78 74 81 74 73 101 108 104 107 104 88 40 42 41 35 46 46 17 34 58 72 53 14 111 147 145 141 60 38 321 191 314 254 320 233 313 285 312 256 261 262 256 257 254 260
64 57 76 72 58 80 80 84 75 56 80 334 359 23 7 42 51 29 32 61 44 120 76 82 118 116 87 290 111 325 190 312 307 5 295 11 287 290 278 292 265 263 251 266 271
40 33 40 49 52 56 75 56 45 13 66 309 341 3 18 68 62 17 32 50 77 92 85 198 147 161 224 260 182 264 21 332 3 81 348 357 53 270 359 269 251 243 256 283 298
8 10 13 22 41 60 79 49 38 43 257 340 327 352 32 31 41 19 55 63 85 80 35 85 197 185 246 13 146 54 62 39 57 2 7 292 115 276 200 207 199 241 261 296 302
336 354 6 13 25 23 45 114 44 94 279 302 12 12 89 14 25 32 31 23 64 62 356 347 340 289 200 52 26 56 52 337 354 7 232 303 333 250 263 241 227 258 303 312 302
335 12 23 23 15 6 81 57 73 205 213 217 294 63 70 11 31 21 63 36 78 77 93 87 323 190 173 173 176 79 130 141 240 312 289 12 237 251 219 291 267 271 287 299 293
334 7 5 356 341 323 190 56 182 197 168 161 85 83 21 45 79 51 45 191 209 160 125 138 264 281 212 172 128 156 53 162 100 345 317 248 279 286 282 278 261 263 283 278 278
328 321 347 351 348 7 79 132 148 207 149 153 135 181 168 258 118 46 209 194 176 181 152 182 338 218 2 104 42 190 152 56 25 1 298 285 281 243 318 286 243 245 270 294 292
319 313 350 346 341 38 101 176 192 187 181 133 174 129 166 165 161 222 228 234 183 159 106 133 115 282 75 198 183 134 176 61 119 146 201 305 274 214 229 291 303 302 301 301 303
330 45 359 354 34 46 72 136 130 158 142 86 110 106 160 168 189 235 224 231 181 158 144 170 144 259 214 131 104 177 190 163 131 215 189 150 274 274 256 280 297 302 313 316 315
12 27 14 12 84 34 77 63 65 96 326 76 110 151 136 180 201 202 232 298 180 158 167 182 126 337 353 14 9 237 205 159 112 95 201 163 260 166 279 291 294 302 319 327 327
9 22 34 57 76 113 107 76 121 111 123 149 140 121 129 222 222 257 258 267 189 187 170 158 154 193 205 192 143 217 202 198 171 175 197 230 277 275 293 317 315 315 316 326 329
33 63 30 344 17 71 107 147 136 206 158 196 298 220 182 236 248 234 236 292 179 194 119 134 229 191 260 260 237 245 242 209 208 207 217 268 232 272 282 296 302 301 315 332 350
45 16 47 80 23 69 352 206 182 196 165 220 200 185 189 208 202 227 190 207 226 107 148 28 268 96 273 271 258 264 248 232 232 237 247 259 275 284 279 290 296 315 325 330 341
27 16 356 16 24 80 219 166 235 113 210 242 207 140 224 247 267 273 258 251 226 165 179 158 174 26 271 319 300 280 249 186 192 221 222 230 239 280 297 289 307 320 319 322 333
Height
1455 1459 1463 1467 1471 1474 1477 1482 1487 1491 1495 1499 1503 1506 1508 1512 1516 1518 1518 1522 1522 1524 1525 1526 1527 1529 1530 1532 1533 1535 1545 1554 1553 1553 1552 1552 1552 1551 1551 1551 1550 1550 1549 1549 1548
1457 1461 1466 1468 1469 1473 1480 1483 1488 1492 1497 1501 1505 1509 1511 1514 1518 1518 1522 1522 1523 1525 1527 1528 1528 1530 1531 1534 1536 1537 1548 1551 1551 1552 1552 1552 1552 1551 1551 1549 1548 1547 1546 1546 1546
1459 1464 1469 1470 1475 1479 1480 1487 1491 1495 1500 1504 1508 1511 1513 1515 1518 1523 1522 1523 1524 1526 1528 1529 1529 1531 1533 1536 1540 1543 1549 1550 1551 1552 1552 1551 1549 1549 1549 1546 1543 1543 1544 1544 1543
1463 1467 1472 1477 1480 1482 1486 1490 1494 1500 1503 1508 1511 1514 1515 1517 1526 1525 1524 1525 1526 1527 1529 1529 1530 1531 1537 1541 1543 1547 1550 1550 1551 1552 1551 1551 1549 1546 1545 1542 1541 1541 1540 1540 1539
1467 1471 1472 1476 1481 1483 1492 1496 1500 1504 1508 1511 1515 1516 1517 1518 1527 1527 1527 1526 1527 1528 1529 1530 1531 1533 1539 1542 1544 1546 1549 1549 1551 1551 1550 1549 1547 1546 1537 1537 1537 1537 1536 1536 1536
1470 1473 1477 1483 1488 1495 1498 1502 1505 1508 1511 1514 1517 1517 1518 1521 1528 1528 1527 1527 1527 1529 1530 1530 1531 1534 1538 1543 1545 1548 1548 1549 1550 1550 1549 1548 1545 1545 1534 1533 1534 1534 1534 1534 1532
1478 1479 1485 1491 1498 1501 1504 1507 1509 1512 1514 1516 1518 1520 1518 1529 1529 1530 1529 1528 1530 1531 1531 1531 1533 1535 1539 1544 1548 1548 1550 1550 1551 1550 1548 1546 1539 1540 1533 1532 1531 1531 1531 1531 1529
1488 1492 1495 1500 1504 1507 1509 1510 1513 1514 1516 1519 1520 1519 1526 1532 1532 1532 1531 1531 1532 1532 1532 1533 1535 1536 1541 1546 1549 1552 1553 1553 1550 1549 1548 1547 1538 1533 1531 1530 1529 1529 1527 1527 1525
1501 1504 1506 1509 1509 1511 1512 1514 1516 1517 1519 1520 1522 1522 1533 1535 1535 1534 1533 1533 1534 1534 1534 1535 1537 1541 1545 1550 1555 1558 1554 1558 1552 1551 1551 1550 1539 1530 1530 1530 1526 1525 1523 1523 1522
1511 1512 1513 1513 1514 1515 1516 1518 1520 1520 1521 1522 1523 1525 1536 1538 1536 1536 1536 1536 1536 1536 1537 1537 1538 1546 1554 1556 1557 1558 1559 1561 1561 1554 1553 1551 1538 1527 1527 1526 1520 1519 1519 1520 1520
1517 1518 1519 1519 1519 1519 1520 1520 1524 1525 1526 1533 1535 1535 1537 1539 1539 1538 1537 1537 1537 1537 1544 1542 1552 1563 1562 1561 1561 1563 1565 1566 1560 1556 1554 1547 1538 1521 1519 1517 1515 1515 1516 1516 1517
1524 1523 1524 1524 1523 1522 1521 1520 1524 1531 1536 1538 1538 1539 1540 1540 1540 1539 1539 1540 1539 1548 1547 1551 1561 1561 1561 1561 1561 1563 1564 1563 1558 1556 1555 1547 1531 1518 1515 1514 1514 1513 1514 1514 1515
1528 1527 1526 1526 1525 1524 1524 1526 1528 1530 1534 1542 1542 1542 1543 1543 1543 1543 1542 1543 1546 1551 1553 1554 1560 1560 1561 1562 1561 1562 1562 1563 1566 1558 1556 1552 1527 1515 1513 1513 1512 1511 1512 1512 1511
1532 1531 1529 1527 1529 1529 1529 1530 1530 1531 1546 1550 1546 1546 1547 1544 1547 1546 1545 1547 1548 1554 1556 1558 1560 1561 1562 1562 1563 1561 1562 1563 1564 1563 1558 1559 1535 1519 1513 1512 1510 1508 1508 1508 1508
1535 1533 1531 1530 1530 1530 1532 1531 1531 1532 1575 1553 1549 1549 1547 1546 1550 1549 1547 1546 1551 1554 1557 1560 1561 1562 1562 1561 1562 1562 1562 1564 1564 1569 1572 1558 1557 1516 1518 1511 1508 1505 1505 1506 1507
1535 1533 1532 1532 1532 1532 1532 1532 1533 1552 1576 1558 1551 1550 1549 1549 1550 1550 1550 1550 1553 1555 1557 1561 1561 1562 1561 1561 1561 1562 1564 1568 1570 1569 1570 1561 1561 1520 1515 1508 1504 1503 1504 1505 1504
1537 1535 1533 1533 1533 1532 1531 1533 1552 1571 1562 1558 1555 1553 1552 1553 1552 1551 1553 1556 1560 1568 1578 1563 1561 1561 1561 1560 1561 1564 1575 1581 1568 1569 1552 1568 1565 1518 1505 1504 1502 1502 1503 1502 1502
1537 1536 1535 1533 1533 1533 1533 1536 1565 1558 1558 1555 1554 1553 1555 1555 1555 1555 1557 1561 1560 1563 1575 1575 1569 1560 1560 1560 1563 1567 1571 1581 1569 1567 1566 1565 1553 1512 1503 1502 1502 1502 1500 1500 1500
1537 1537 1536 1534 1533 1532 1534 1559 1558 1554 1552 1554 1554 1554 1556 1555 1556 1556 1558 1561 1559 1560 1565 1570 1562 1559 1560 1560 1562 1565 1568 1569 1581 1587 1581 1561 1538 1507 1498 1498 1498 1498 1498 1499 1499
1537 1536 1536 1534 1533 1532 1536 1550 1551 1550 1550 1551 1551 1554 1555 1557 1557 1558 1558 1557 1558 1558 1559 1564 1570 1560 1560 1561 1562 1562 1566 1570 1580 1565 1559 1551 1550 1527 1507 1499 1496 1498 1499 1499 1497
1537 1536 1536 1534 1533 1533 1550 1553 1551 1550 1551 1552 1554 1556 1556 1557 1558 1559 1558 1556 1556 1558 1559 1562 1567 1563 1562 1562 1561 1566 1567 1571 1573 1573 1565 1564 1527 1508 1508 1501 1501 1501 1499 1498 1495
1536 1536 1537 1534 1536 1542 1548 1547 1548 1550 1550 1551 1553 1554 1555 1557 1558 1559 1558 1556 1554 1555 1558 1561 1568 1571 1557 1559 1558 1559 1561 1564 1566 1566 1578 1575 1536 1501 1503 1502 1502 1501 1499 1496 1492
1536 1536 1536 1534 1548 1549 1548 1549 1549 1550 1551 1552 1552 1554 1555 1556 1558 1558 1555 1553 1553 1554 1558 1559 1566 1575 1558 1563 1560 1560 1559 1559 1564 1567 1569 1562 1522 1501 1501 1501 1500 1498 1494 1490 1485
1538 1541 1538 1537 1543 1546 1548 1550 1550 1550 1551 1552 1554 1554 1556 1557 1557 1556 1555 1552 1552 1553 1554 1555 1564 1561 1564 1549 1554 1556 1554 1556 1555 1564 1554 1534 1516 1497 1494 1499 1496 1493 1490 1485 1481
1541 1545 1546 1549 1546 1547 1547 1549 1551 1551 1552 1552 1553 1553 1554 1555 1556 1557 1555 1552 1553 1553 1554 1555 1560 1564 1556 1553 1552 1547 1545 1548 1550 1540 1540 1514 1517 1495 1500 1501 1496 1493 1488 1483 1478
1545 1547 1547 1548 1548 1548 1549 1549 1549 1549 1551 1552 1552 1551 1553 1554 1552 1551 1552 1553 1550 1553 1553 1556 1558 1560 1559 1548 1550 1544 1533 1534 1535 1533 1529 1516 1509 1498 1494 1495 1494 1490 1486 1481 1477
1548 1548 1548 1550 1549 1549 1549 1549 1549 1549 1549 1549 1550 1551 1552 1549 1547 1546 1546 1546 1547 1549 1554 1557 1559 1561 1553 1547 1546 1532 1513 1518 1522 1520 1515 1521 1496 1495 1493 1492 1489 1486 1483 1480 1477